Puyallup, WA

10:56 AM PST on December 02, 2016 (GMT -0800)
Pierce County - Thun Field

Weather History for KPLU - March, 2014

Change the Weather History Date:

Sunday, March 30, 2014

  Actual Average (KTCM) Record (KTCM)
Temperature  
Mean Temperature 44 °F -  
Max Temperature 51 °F 52 °F 72 °F (1995)
Min Temperature 35 °F 33 °F 27 °F (1968)
Degree Days  
Heating Degree Days 21    
Moisture  
Dew Point 40 °F    
Average Humidity 87    
Maximum Humidity 100    
Minimum Humidity 54    
Precipitation  
Precipitation 0.05 in - - ()
Sea Level Pressure  
Sea Level Pressure 29.95 in    
Wind  
Wind Speed 5 mph (SW)    
Max Wind Speed 10 mph    
Max Gust Speed 20 mph    
Visibility 10 miles    
Events Rain    
Averages and records for this station are not official NWS values.
T = Trace of Precipitation, MM = Missing Value Source: NWS Daily Summary

Daily Weather History Graph

Daily Weather History Graph

Search for Another Location

Airport or City:

Trip Planner

Search our weather history database for the weather conditions in past years. The results will help you decide how hot, cold, wet, or windy it might be!

Date:

Astronomy

Mar. 30, 2014 Rise Set
Actual Time 6:51 AM PDT 7:35 PM PDT
Civil Twilight 6:21 AM PDT 8:06 PM PDT
Nautical Twilight 5:44 AM PDT 8:43 PM PDT
Astronomical Twilight 5:06 AM PDT 9:22 PM PDT
Moon 6:40 AM PDT (3/30) 7:57 PM PDT (3/30)
Length of Visible Light 13h 45m
Length of Day
12h 44m
New Moon, 0% of the Moon is Illuminated
Mar 30
New Moon
Apr 7
First Quarter
Apr 15
Full
Apr 22
Last Quarter
Apr 28
New

Hourly Weather History & Observations

Time (PDT) Temp. Windchill Dew Point Humidity Pressure Visibility Wind Dir Wind Speed Gust Speed Precip Events Conditions
12:15 AM 44.6 °F 41.4 °F 42.8 °F 93% 29.85 in 7.0 mi South 5.8 mph - N/A Rain Light Rain
12:35 AM 44.6 °F 41.4 °F 42.8 °F 93% 29.86 in 10.0 mi South 5.8 mph - N/A Rain Light Rain
12:55 AM 44.6 °F 42.2 °F 42.8 °F 93% 29.86 in 10.0 mi SSW 4.6 mph - N/A   Unknown
1:15 AM 44.6 °F 41.4 °F 42.8 °F 93% 29.86 in 9.0 mi SSW 5.8 mph - N/A Rain Light Rain
1:35 AM 44.6 °F 42.2 °F 42.8 °F 93% 29.87 in 10.0 mi SSW 4.6 mph - N/A   Unknown
1:55 AM 44.6 °F 43.1 °F 42.8 °F 93% 29.87 in 10.0 mi SSW 3.5 mph - N/A   Unknown
2:15 AM 44.6 °F 41.4 °F 42.8 °F 93% 29.87 in 8.0 mi South 5.8 mph - N/A Rain Light Rain
2:35 AM 42.8 °F 38.6 °F 42.8 °F 100% 29.88 in 5.0 mi South 6.9 mph - 0.01 in Rain Light Rain
2:55 AM 42.8 °F 39.3 °F 41.0 °F 93% 29.88 in 4.0 mi SSW 5.8 mph - 0.05 in Rain Rain
3:15 AM 41.0 °F 39.0 °F 41.0 °F 100% 29.89 in 10.0 mi SSW 3.5 mph - N/A   Unknown
3:35 AM 41.0 °F 36.4 °F 41.0 °F 100% 29.89 in 10.0 mi South 6.9 mph - N/A Rain Light Rain
3:55 AM 41.0 °F 37.1 °F 41.0 °F 100% 29.89 in 10.0 mi SSW 5.8 mph - N/A   Unknown
4:15 AM 41.0 °F 36.4 °F 41.0 °F 100% 29.89 in 10.0 mi SSW 6.9 mph - N/A   Unknown
4:35 AM 41.0 °F 38.0 °F 41.0 °F 100% 29.91 in 4.0 mi SSW 4.6 mph - N/A Rain Light Rain
4:55 AM 41.0 °F 38.0 °F 41.0 °F 100% 29.91 in 10.0 mi SSW 4.6 mph - N/A   Unknown
5:15 AM 41.0 °F 38.0 °F 41.0 °F 100% 29.91 in 10.0 mi South 4.6 mph - N/A   Unknown
5:35 AM 41.0 °F 37.1 °F 41.0 °F 100% 29.91 in 10.0 mi SSW 5.8 mph - N/A Rain Light Rain
5:55 AM 41.0 °F 36.4 °F 41.0 °F 100% 29.92 in 10.0 mi SSW 6.9 mph - N/A   Unknown
6:15 AM 41.0 °F 38.0 °F 41.0 °F 100% 29.92 in 10.0 mi SW 4.6 mph - N/A   Unknown
6:35 AM 41.0 °F 38.0 °F 41.0 °F 100% 29.92 in 10.0 mi SSW 4.6 mph - N/A   Unknown
6:55 AM 41.0 °F 38.0 °F 41.0 °F 100% 29.93 in 10.0 mi South 4.6 mph - N/A   Unknown
7:15 AM 41.0 °F 38.0 °F 39.2 °F 93% 29.94 in 10.0 mi South 4.6 mph - N/A   Unknown
7:35 AM 41.0 °F 38.0 °F 39.2 °F 93% 29.94 in 10.0 mi South 4.6 mph - N/A   Unknown
7:55 AM 41.0 °F 36.4 °F 39.2 °F 93% 29.95 in 10.0 mi South 6.9 mph - N/A   Unknown
8:15 AM 41.0 °F 37.1 °F 39.2 °F 93% 29.95 in 10.0 mi South 5.8 mph - N/A   Unknown
8:35 AM 42.8 °F 40.1 °F 39.2 °F 87% 29.96 in 10.0 mi South 4.6 mph - N/A   Unknown
8:55 AM 44.6 °F 40.2 °F 39.2 °F 81% 29.96 in 10.0 mi SSW 8.1 mph - N/A   Unknown
9:15 AM 46.4 °F 42.9 °F 37.4 °F 71% 29.96 in 10.0 mi SSW 6.9 mph - N/A   Unknown
9:35 AM 46.4 °F 42.4 °F 37.4 °F 71% 29.97 in 10.0 mi South 8.1 mph - N/A   Unknown
9:55 AM 46.4 °F 43.5 °F 37.4 °F 71% 29.97 in 10.0 mi SSW 5.8 mph - N/A   Unknown
10:15 AM 46.4 °F 42.9 °F 37.4 °F 71% 29.98 in 10.0 mi SSW 6.9 mph - N/A   Unknown
10:35 AM 44.6 °F 40.7 °F 39.2 °F 81% 29.98 in 8.0 mi SSW 6.9 mph - N/A   Unknown
10:55 AM 44.6 °F 41.4 °F 39.2 °F 81% 29.99 in 10.0 mi SSW 5.8 mph - N/A   Unknown
11:15 AM 46.4 °F 44.3 °F 41.0 °F 81% 29.99 in 10.0 mi South 4.6 mph - N/A   Unknown
11:35 AM 46.4 °F 43.5 °F 41.0 °F 81% 29.99 in 10.0 mi SSW 5.8 mph - N/A   Unknown
11:55 AM 48.2 °F - 39.2 °F 71% 29.98 in 10.0 mi SW 5.8 mph - N/A   Unknown
12:15 PM 50.0 °F - 39.2 °F 66% 29.98 in 10.0 mi South 5.8 mph - N/A   Unknown
12:35 PM 48.2 °F - 37.4 °F 66% 29.98 in 10.0 mi SW 8.1 mph - N/A   Unknown
12:55 PM 51.8 °F - 37.4 °F 58% 29.98 in 10.0 mi SSW 8.1 mph 16.1 mph N/A   Unknown
1:15 PM 50.0 °F - 37.4 °F 62% 29.97 in 10.0 mi SW 6.9 mph - N/A   Unknown
1:35 PM 51.8 °F - 35.6 °F 54% 29.97 in 10.0 mi SW 9.2 mph - N/A   Unknown
1:55 PM 50.0 °F - 37.4 °F 62% 29.97 in 10.0 mi SW 4.6 mph - N/A   Unknown
2:15 PM 50.0 °F - 39.2 °F 66% 29.97 in 10.0 mi West 3.5 mph - N/A Rain Light Rain
2:35 PM 48.2 °F - 39.2 °F 71% 29.98 in 10.0 mi NW 10.4 mph 19.6 mph N/A Rain Light Rain
2:55 PM 46.4 °F 41.9 °F 44.6 °F 93% 29.98 in 10.0 mi NW 9.2 mph - N/A   Unknown
3:15 PM 46.4 °F 43.5 °F 42.8 °F 87% 29.98 in 10.0 mi NW 5.8 mph - N/A   Unknown
3:35 PM 48.2 °F - 41.0 °F 76% 29.98 in 10.0 mi NNW 5.8 mph - N/A   Unknown
3:55 PM 48.2 °F - 41.0 °F 76% 29.98 in 10.0 mi NNW 5.8 mph - N/A   Unknown
4:15 PM 48.2 °F - 41.0 °F 76% 29.98 in 10.0 mi WNW 4.6 mph - N/A   Unknown
4:35 PM 46.4 °F 45.2 °F 41.0 °F 81% 29.98 in 10.0 mi WNW 3.5 mph - N/A   Unknown
4:55 PM 48.2 °F - 41.0 °F 76% 29.98 in 10.0 mi WNW 4.6 mph - N/A Rain Light Rain
5:15 PM 48.2 °F - 39.2 °F 71% 29.98 in 10.0 mi SW 5.8 mph - N/A   Unknown
5:35 PM 48.2 °F - 41.0 °F 76% 29.99 in 9.0 mi West 5.8 mph - N/A Rain Light Rain
5:55 PM 46.4 °F 44.3 °F 41.0 °F 81% 29.99 in 10.0 mi West 4.6 mph - N/A   Unknown
6:15 PM 46.4 °F - 41.0 °F 81% 29.99 in 10.0 mi Calm Calm - N/A   Unknown
6:35 PM 46.4 °F 45.2 °F 41.0 °F 81% 30.00 in 10.0 mi SSW 3.5 mph - N/A   Unknown
6:55 PM 44.6 °F - 41.0 °F 87% 29.99 in 9.0 mi Calm Calm - N/A Rain Light Rain
7:15 PM 44.6 °F - 42.8 °F 93% 29.99 in 10.0 mi Calm Calm - N/A   Unknown
7:35 PM 44.6 °F - 41.0 °F 87% 29.99 in 10.0 mi Calm Calm - N/A   Unknown
7:55 PM 42.8 °F - 41.0 °F 93% 29.99 in 10.0 mi Calm Calm - N/A   Unknown
8:15 PM 41.0 °F - 41.0 °F 100% 30.00 in 10.0 mi Calm Calm - N/A   Unknown
8:35 PM 41.0 °F - 41.0 °F 100% 30.00 in 10.0 mi Calm Calm - N/A   Unknown
8:55 PM 41.0 °F - 41.0 °F 100% 30.00 in 10.0 mi Calm Calm - N/A   Unknown
9:15 PM 41.0 °F - 41.0 °F 100% 30.00 in 10.0 mi Calm Calm - N/A   Unknown
9:35 PM 41.0 °F - 39.2 °F 93% 30.00 in 10.0 mi Calm Calm - N/A   Unknown
9:55 PM 39.2 °F - 39.2 °F 100% 30.00 in 10.0 mi Calm Calm - N/A   Unknown
10:15 PM 39.2 °F - 39.2 °F 100% 30.00 in 10.0 mi Calm Calm - N/A   Unknown
10:35 PM 37.4 °F - 37.4 °F 100% 30.00 in 10.0 mi Calm Calm - N/A   Unknown
10:55 PM 37.4 °F - 37.4 °F 100% 29.99 in 10.0 mi Calm Calm - N/A   Unknown
11:15 PM 37.4 °F - 37.4 °F 100% 29.99 in 10.0 mi Calm Calm - N/A   Unknown
11:35 PM 37.4 °F - 37.4 °F 100% 29.99 in 10.0 mi Calm Calm - N/A   Unknown
11:55 PM 35.6 °F - 35.6 °F 100% 29.98 in 10.0 mi Calm Calm - N/A   Unknown